Location: Unnamed
(54.5186°N, 36.2255°E)
Time: 20:33:34
(UTC+03:00)

ISS - Pass Details

Date: 21 February 2026
Orbit: 416 x 427 km, 51.6° (Epoch: 6 March)

Event Time Altitude Azimuth Distance (km) Brightness Sun altitude
Exits shadow 06:13:00 23° 239° (WSW) 934 -2.5 -13.8°
Maximum altitude 06:14:46 49° 174° (S) 545 -3.2 -13.5°
Drops below altitude 10° 06:18:02 10° 98° (E) 1,495 0.5 -13.0°
Sets 06:20:09 0° 93° (E) 2,358 2.2 -12.7°
